Location: Hohenfelde
(53.8441°N, 9.6220°E)
Time: 12:28:29
(UTC+00:00)

Cosmos 1515 - Pass Details

Date: 14 July 2020
Orbit: 507 x 515 km, 82.5° (Epoch: 12 August)

Event Time Altitude Azimuth Distance (km) Brightness Sun altitude
Rises 01:07:22 0° 343° (NNW) 2,644 8.1 -11.5°
Reaches altitude 10° 01:09:34 10° 337° (NNW) 1,753 7.0 -11.4°
Maximum altitude 01:13:12 42° 266° (W) 751 4.3 -11.2°
Enters shadow 01:15:52 16° 201° (SSW) 1,383 5.2 -11.0°
